Location: Unspecified
(41.0394°N, 0.0000°E)
Time: 20:23:42
(UTC+00:00)

ERS 2 DEB - Visible Passes

Search period start: 04 April 2026 00:00
Search period end: 14 April 2026 00:00
Orbit: 714 x 718 km, 98.6° (Epoch: 28 March)

Date Brightness Start Highest point End Pass type
(mag) Time Alt. Az. Time Alt. Az. Time Alt. Az.
4 Apr ? 19:09:47 10° SW 19:12:29 15° W 19:15:10 10° WNW visible
6 Apr ? 19:05:25 10° SW 19:08:25 16° W 19:11:27 10° NW visible
8 Apr ? 19:01:04 10° SW 19:04:21 18° W 19:07:39 10° NW visible
10 Apr ? 18:56:45 10° SW 19:00:16 20° W 19:03:48 10° NW visible
